Regional Weather Roundup
Issued by NWS

Home | Current Version | Previous Version | Graphics & Text | Print | Product List | Glossary On
Versions: 1 2 3 4 5 6 7 8 9 10 11 12 13 14 15 16 17 18 19 20 21 22 23 24 25 26 27 28 29 30 31 32 33 34 35 36 37 38 39 40 41 42 43 44 45 46 47 48 49 50
000
ASUS43 KOAX 030302
RWRNE

WEATHER ROUNDUP FOR NEBRASKA
NATIONAL WEATHER SERVICE OMAHA NE
1000 PM CDT THU JUL 02 2015

NOTES: SATELLITE DATA IS BEING USED TO AUGMENT CLOUD COVER ABOVE
       12000 FEET.
       "FAIR" INDICATES FEW OR NO CLOUDS BELOW 12,000 FEET WITH NO
       SIGNIFICANT WEATHER AND/OR OBSTRUCTIONS TO VISIBILITY.

  * THESE STATIONS DO NOT REPORT WEATHER SUCH AS RAIN...SNOW OR FOG.

NEZ001>004-019>022-054>056-030400-
NEBRASKA PANHANDLE

CITY           SKY/WX    TMP DP  RH WIND       PRES   REMARKS
SCOTTSBLUFF    CLOUDY    72  60  66 NE8       30.11R
ALLIANCE       CLEAR     66  61  84 NE7       30.10R
CHADRON        CLEAR     70  61  73 N3        30.08R
KIMBALL          N/A    N/A N/A N/A MISG        N/A
SIDNEY         CLEAR     69  58  67 E6        30.13R
$$

NEZ057>060-069>072-079>082-030400-
SOUTHWEST NEBRASKA

CITY           SKY/WX    TMP DP  RH WIND       PRES   REMARKS
NORTH PLATTE   LGT RAIN  68  59  73 CALM      30.03R
IMPERIAL       CLEAR     69  60  73 NE7       30.06R
LEXINGTON      CLEAR     68  63  82 N6        30.00R
MCCOOK         CLEAR     72  61  68 N6        30.01R
$$

NEZ005>010-023>029-035>040-094-030400-
NORTH CENTRAL NEBRASKA

CITY           SKY/WX    TMP DP  RH WIND       PRES   REMARKS
VALENTINE      CLOUDY    69  61  75 NE3       30.03R
AINSWORTH      PTCLDY    66  63  89 CALM      30.03R
BROKEN BOW     CLEAR     67  61  81 N3        30.01R
O`NEILL        MOCLDY    65  64  96 E5        30.01R FOG
ORD            CLEAR     66  62  87 E5        29.99R
$$

NEZ041-046>049-061>064-073>077-083>087-030400-
SOUTH CENTRAL NEBRASKA

CITY           SKY/WX    TMP DP  RH WIND       PRES   REMARKS
GRAND ISLAND   PTCLDY    66  64  93 N7        29.98R
AURORA         MOCLDY    67  67 100 NE6       29.96S
HASTINGS       CLEAR     70  65  84 N12       29.97R
KEARNEY *      CLEAR     70  63  78 NE9       29.99R
$$

NEZ011>018-030>034-042>045-030400-
NORTHEAST NEBRASKA

CITY           SKY/WX    TMP DP  RH WIND       PRES   REMARKS
NORFOLK        CLOUDY    65  63  93 CALM      29.98R
ALBION         CLOUDY    65  61  86 E5        30.00R
BLAIR          CLOUDY    65  60  84 E7        29.96S
COLUMBUS *     CLOUDY    64  59  82 E9        29.98R
FREMONT        MOCLDY    67  64  90 NE5       29.97R
TEKAMAH        CLOUDY    67  62  84 E6        29.96S
$$

NEZ050>053-065>068-078-088>093-030400-
SOUTHEAST NEBRASKA

CITY           SKY/WX    TMP DP  RH WIND       PRES   REMARKS
LINCOLN        CLOUDY    69  65  86 E9        29.95R
OMAHA EPPLEY   CLOUDY    67  60  78 E8        29.95S
BEATRICE       CLOUDY    70  67  90 E5        29.93R
FALLS CITY     CLOUDY    69  66  90 E7        29.92R
NEBRASKA CITY  CLOUDY    67  65  94 E5        29.95R
PLATTSMOUTH    CLOUDY    67  61  81 E6        29.95R
$$

NEZ044-045-051>053-067-030400-
OMAHA AREA

CITY           SKY/WX    TMP DP  RH WIND       PRES   REMARKS
OMAHA EPPLEY   CLOUDY    67  60  78 E8        29.95S
BLAIR          CLOUDY    65  60  84 E7        29.96S
FREMONT        MOCLDY    67  64  90 NE5       29.97R
MILLARD        LGT RAIN  69  63  80 E3        29.95R
OFFUTT AFB     CLOUDY    68  62  80 NE7       29.94R
PLATTSMOUTH    CLOUDY    67  61  81 E6        29.95R
WAHOO          DRIZZLE   67  64  90 NE7       29.96R
$$


USA.gov is the U.S. government's official web portal to all federal, state and local government web resources and services.